Location: Prague
(50.0830°N, 14.4670°E)
Time: 02:33:29
(UTC+01:00)

XW-2F - Pass Details

Date: 28 November 2021
Orbit: 495 x 515 km, 97.5° (Epoch: 16 January)

Event Time Altitude Azimuth Distance (km) Brightness Sun altitude
Rises 06:42:08 0° 10° (N) 2,650 ? -8.3°
Reaches altitude 10° 06:44:16 10° 6° (N) 1,759 ? -8.0°
Maximum altitude 06:48:00 60° 287° (WNW) 602 ? -7.5°
Drops below altitude 10° 06:51:43 10° 208° (SSW) 1,746 ? -6.9°
Sets 06:53:48 0° 204° (SSW) 2,627 ? -6.6°
